#timestamp,LO_Frequency,Hit 
1504090815.2,286046997.9,N
1504090835.9,286046995.7,N
1504090855.7,286046993.7,N
1504090875.6,286046996.7,N
1504090895.4,286046998.3,N
1504090915.2,286047001.0,N
1504090935.1,286047004.3,N
1504090936.0,286047004.3,N
1504090955.8,286047003.0,N
1504090975.6,286047001.4,N
1504090995.5,286047001.5,N
1504091015.3,286047000.8,N
1504091035.1,286046998.8,N
1504091055.9,286046999.0,N
1504091075.7,286046998.2,N
1504091095.5,286046997.3,N
1504091115.4,286046999.6,N
1504091135.2,286046995.3,N
1504091155.0,286046996.7,N
1504091155.9,286046996.7,N
1504091175.8,286046998.5,P
1504091195.6,286047000.7,P
1504091215.4,286047000.0,N
1504091235.3,286047001.2,N
1504091255.1,286046998.6,N
1504091275.8,286046998.1,N
1504091295.7,286047000.9,N
1504091315.5,286047002.1,N
1504091335.3,286047002.8,N
1504091355.2,286047002.8,N
1504091375.0,286047002.3,N
1504091375.9,286047002.3,N
1504091395.8,286046998.7,N
1504091415.6,286046995.2,N
1504091435.4,286046994.2,N
1504091455.3,286046994.7,N
1504091475.1,286046990.2,P
1504091476.0,286046990.2,N
1504091495.8,286046994.2,N
1504091515.7,286046996.3,N
1504091535.5,286046996.1,N
1504091555.3,286046998.0,N
1504091575.2,286046998.0,N
1504091595.0,286046997.9,N
1504091595.9,286046997.9,N
1504091615.7,286046994.9,N
1504091635.6,286046999.2,N
1504091655.4,286046996.6,N
1504091675.2,286046996.6,N
1504091695.1,286046999.1,N
1504091696.0,286046999.1,N
1504091715.8,286047000.5,N
1504091735.7,286046998.7,N
1504091755.5,286047000.3,N
1504091775.3,286047002.1,N
1504091795.2,286047004.2,N
1504091815.9,286047003.1,N
1504091835.7,286047002.9,N
1504091855.6,286047005.1,N
1504091876.4,286047004.7,N
1504091895.3,286047007.4,N
1504091915.2,286047007.4,N
1504091935.9,286047007.1,N
1504091955.7,286047006.0,N
1504091975.6,286047007.4,N
1504091995.4,286047006.4,N
1504092015.2,286047006.4,N
1504092035.1,286047008.8,N
1504092036.0,286047008.8,N
1504092085.8,286047003.3,E
1504092095.7,286047002.6,N
1504092115.6,286047000.9,P
1504092135.4,286046998.1,N
1504092155.3,286047000.0,N
1504092175.1,286047000.0,N
1504092176.0,286047000.0,N
1504092195.8,286046999.7,N
1504092215.7,286047002.1,N
1504092235.5,286047004.3,P
1504092255.3,286047001.9,N
1504092275.2,286047006.0,P
1504092295.9,286047004.0,N
1504092315.7,286047004.4,N
1504092335.6,286047001.6,N
1504092355.4,286047001.5,N
1504092375.2,286047003.1,N
1504092395.1,286047003.4,N
1504092396.0,286047003.4,N
1504092415.8,286047002.3,N
1504092435.6,286047002.2,N
1504092455.5,286047005.9,P
1504092475.3,286047002.7,N
1504092495.2,286047001.9,N
1504092515.9,286047003.7,N
1504092535.7,286047003.2,N
1504092555.6,286047003.2,N
1504092575.4,286047003.6,P
1504092595.2,286046998.9,P
1504092615.1,286046999.3,N
1504092616.0,286046999.3,N
1504092635.8,286047001.2,N
1504092655.7,286046998.3,N
1504092675.5,286046999.2,N
1504092695.3,286046997.2,N
1504092715.2,286046997.8,N
1504092735.9,286046994.9,N
1504092755.7,286046993.8,N
1504092775.6,286046992.9,N
1504092795.4,286046990.8,N
1504092815.2,286046989.2,P
1504092835.1,286046993.0,N
1504092836.0,286046993.0,N
1504092855.8,286046995.8,N
1504092875.6,286046996.2,N
1504092895.5,286046993.3,N
1504092915.3,286046995.4,N
1504092935.1,286046999.5,N
1504092955.9,286046999.4,N
1504092975.7,286046999.0,N
1504092995.5,286046999.3,N
1504093015.4,286047001.0,N
1504093035.2,286046999.3,N
1504093055.1,286047000.6,N
1504093056.0,286047000.6,N
1504093075.8,286047000.0,N
1504093095.6,286047002.3,N
1504093115.5,286047000.9,N
1504093135.3,286046999.7,N
1504093155.1,286047001.0,N
1504093175.9,286046998.4,N
1504093195.7,286047000.5,N
1504093215.5,286046999.4,N
1504093235.4,286047000.0,N
1504093255.2,286047002.8,N
1504093275.0,286047002.2,N
1504093275.9,286047002.2,N
1504093295.8,286047002.8,N
1504093315.6,286047002.4,N
1504093335.4,286047000.2,N
1504093355.3,286047002.2,N
1504093375.1,286047001.3,N
1504093395.8,286047005.9,N
1504093415.7,286047007.6,P
1504093435.5,286047004.7,N
1504093455.4,286047005.8,N
1504093475.2,286047001.3,N
1504093495.0,286047003.9,N
1504093495.9,286047003.9,N
1504093515.8,286047001.3,N
1504093535.6,286047002.6,N
1504093555.4,286046999.8,N
1504093575.3,286047000.9,N
1504093595.1,286046998.6,N
1504093615.8,286046999.0,N
1504093635.7,286046998.5,N
1504093655.5,286046999.2,N
1504093675.3,286046999.2,N
1504093695.2,286046998.1,N
1504093715.0,286046999.0,N
1504093715.9,286046999.0,N
1504093735.7,286047000.0,N
1504093755.6,286047002.6,N
1504093775.4,286047002.5,N
1504093795.2,286047001.7,N
1504093815.1,286047002.1,N
1504093816.0,286047002.1,N
1504093835.8,286047002.6,N
1504093855.7,286047002.5,N
1504093875.5,286047002.3,N
1504093895.3,286047000.5,N
1504093915.2,286046998.7,N
1504093935.9,286046998.8,P
1504093955.7,286046999.5,N
1504093975.6,286047001.1,N
1504093995.4,286046998.4,N
1504094015.2,286046999.5,N
1504094035.1,286046999.1,N
1504094036.0,286046999.1,N
1504094055.8,286046998.2,N
1504094075.6,286047000.0,N
1504094095.5,286047002.7,N
1504094115.3,286046998.8,N
1504094135.2,286046999.5,P
1504094155.9,286046996.7,P
1504094175.7,286046998.6,N
1504094195.6,286047001.1,N
1504094215.4,286046999.0,N
1504094235.2,286046998.1,N
1504094255.1,286047000.5,N
1504094256.0,286047000.5,N
1504094275.8,286047001.6,N
1504094295.6,286047002.7,N
1504094315.5,286047001.6,N
1504094335.3,286047001.3,N
1504094355.1,286047001.3,N
1504094375.9,286047002.2,N
1504094395.7,286047002.8,N
